When you browse on this site, cookies collect data to enhance your experience and personalize the content and advertising you see.
Visit our Privacy Policy to learn more. By continuing to use the site, you agree to this use of cookies and data.
  • In Hungary
  • List of Countries
  • For 7 days
  • Water Temperature
  • Weather Map
  • News
  • Weather Widgets
  • user-avatar
    Login

    Hourly Weather Martyshenka

    Today, 22 October, Tuesday

    Time Temperature Precipitation Wind Pressure Humidity
    00:00 +9°C° 0 mm 7 mps 761 mmHg 79%
    01:00 +9°C° 0 mm 7 mps 761 mmHg 79%
    02:00 +9°C° 0 mm 7 mps 760 mmHg 79%
    03:00 +9°C° 0 mm 7 mps 760 mmHg 79%
    04:00 +9°C° 0.7 mm 7 mps 760 mmHg 82%
    05:00 +9°C° 0.7 mm 6 mps 759 mmHg 85%
    06:00 +9°C° 0.7 mm 6 mps 759 mmHg 88%
    07:00 +9°C° 0.9 mm 5 mps 760 mmHg 89%
    08:00 +9°C° 0.9 mm 5 mps 760 mmHg 91%
    09:00 +10°C° 0.9 mm 4 mps 760 mmHg 93%
    10:00 +11°C° 0.1 mm 3 mps 760 mmHg 87%
    11:00 +12°C° 0.1 mm 3 mps 760 mmHg 82%
    12:00 +13°C° 0.1 mm 3 mps 761 mmHg 76%
    13:00 +13°C° 0 mm 3 mps 761 mmHg 75%
    14:00 +13°C° 0 mm 3 mps 761 mmHg 74%
    15:00 +13°C° 0 mm 3 mps 761 mmHg 72%
    16:00 +12°C° 0 mm 3 mps 761 mmHg 77%
    17:00 +10°C° 0 mm 3 mps 761 mmHg 81%
    18:00 +9°C° 0 mm 2 mps 762 mmHg 86%
    19:00 +9°C° 0 mm 2 mps 762 mmHg 86%
    20:00 +8°C° 0 mm 2 mps 762 mmHg 85%
    21:00 +8°C° 0 mm 2 mps 762 mmHg 85%
    22:00 +7°C° 0 mm 2 mps 762 mmHg 86%
    23:00 +8°C° 0 mm 1 mps 762 mmHg 87%

    Tomorrow, 23 October, Wednesday

    Time Temperature Precipitation Wind Pressure Humidity
    00:00 +7°C° 0 mm 1 mps 762 mmHg 88%
    01:00 +7°C° 0 mm 1 mps 762 mmHg 88%
    02:00 +7°C° 0 mm 1 mps 762 mmHg 88%
    03:00 +5°C° 0 mm 2 mps 762 mmHg 89%
    04:00 +7°C° 0 mm 1 mps 762 mmHg 87%
    05:00 +7°C° 0 mm 1 mps 762 mmHg 86%
    06:00 +7°C° 0 mm 1 mps 762 mmHg 84%
    07:00 +7°C° 0 mm 2 mps 762 mmHg 83%
    08:00 +7°C° 0 mm 2 mps 762 mmHg 82%
    09:00 +8°C° 0 mm 3 mps 762 mmHg 81%
    10:00 +8°C° 0 mm 4 mps 761 mmHg 76%
    11:00 +10°C° 0 mm 4 mps 761 mmHg 71%
    12:00 +10°C° 0 mm 5 mps 760 mmHg 67%
    13:00 +10°C° 0 mm 5 mps 760 mmHg 68%
    14:00 +10°C° 0 mm 5 mps 759 mmHg 69%
    15:00 +10°C° 0 mm 5 mps 759 mmHg 70%
    16:00 +10°C° 0 mm 5 mps 759 mmHg 72%
    17:00 +10°C° 0 mm 5 mps 758 mmHg 74%
    18:00 +10°C° 0 mm 4 mps 758 mmHg 77%
    19:00 +9°C° 0.1 mm 5 mps 758 mmHg 81%
    20:00 +10°C° 0.1 mm 5 mps 758 mmHg 85%
    21:00 +10°C° 0.1 mm 5 mps 758 mmHg 89%
    22:00 +11°C° 0 mm 4 mps 758 mmHg 90%
    23:00 +10°C° 0 mm 4 mps 758 mmHg 92%

    Day after tomorrow, 24 October, Thursday

    Time Temperature Precipitation Wind Pressure Humidity
    00:00 +10°C° 0 mm 3 mps 758 mmHg 93%
    01:00 +10°C° 0 mm 3 mps 759 mmHg 92%
    02:00 +10°C° 0 mm 3 mps 759 mmHg 92%
    03:00 +10°C° 0 mm 2 mps 759 mmHg 91%
    04:00 +9°C° 0 mm 2 mps 759 mmHg 91%
    05:00 +9°C° 0 mm 2 mps 759 mmHg 90%
    06:00 +9°C° 0 mm 1 mps 760 mmHg 89%
    07:00 +10°C° 0 mm 1 mps 760 mmHg 85%
    08:00 +11°C° 0 mm 1 mps 760 mmHg 82%
    09:00 +11°C° 0 mm 0 mps 760 mmHg 78%
    10:00 +13°C° 0 mm 1 mps 760 mmHg 75%
    11:00 +13°C° 0 mm 1 mps 760 mmHg 72%
    12:00 +14°C° 0 mm 1 mps 761 mmHg 69%
    13:00 +14°C° 0 mm 1 mps 761 mmHg 70%
    14:00 +14°C° 0 mm 1 mps 761 mmHg 71%
    15:00 +14°C° 0 mm 1 mps 761 mmHg 72%
    16:00 +13°C° 0 mm 1 mps 761 mmHg 76%
    17:00 +12°C° 0 mm 1 mps 761 mmHg 80%
    18:00 +12°C° 0 mm 1 mps 761 mmHg 84%
    19:00 +11°C° 0 mm 1 mps 762 mmHg 84%
    20:00 +11°C° 0 mm 1 mps 762 mmHg 85%
    21:00 +11°C° 0 mm 1 mps 762 mmHg 86%
    22:00 +11°C° 0 mm 1 mps 762 mmHg 85%
    23:00 +11°C° 0 mm 1 mps 762 mmHg 83%

    25 October, Friday

    Time Temperature Precipitation Wind Pressure Humidity
    00:00 +10°C° 0 mm 0 mps 762 mmHg 82%
    01:00 +10°C° 0 mm 0 mps 762 mmHg 81%
    02:00 +10°C° 0 mm 0 mps 762 mmHg 81%
    03:00 +10°C° 0 mm 1 mps 762 mmHg 80%
    04:00 +9°C° 0 mm 0 mps 762 mmHg 82%
    05:00 +9°C° 0 mm 0 mps 762 mmHg 83%
    06:00 +9°C° 0 mm 0 mps 762 mmHg 84%
    07:00 +10°C° 0 mm 1 mps 762 mmHg 82%
    08:00 +11°C° 0 mm 1 mps 762 mmHg 79%
    09:00 +11°C° 0 mm 1 mps 763 mmHg 77%
    10:00 +12°C° 0 mm 2 mps 763 mmHg 75%
    11:00 +12°C° 0 mm 2 mps 763 mmHg 72%
    12:00 +13°C° 0 mm 2 mps 763 mmHg 70%
    13:00 +13°C° 0 mm 2 mps 763 mmHg 69%
    14:00 +13°C° 0 mm 2 mps 763 mmHg 69%
    15:00 +12°C° 0 mm 2 mps 763 mmHg 68%
    16:00 +10°C° 0 mm 2 mps 763 mmHg 73%
    17:00 +9°C° 0 mm 2 mps 763 mmHg 77%
    18:00 +8°C° 0 mm 2 mps 763 mmHg 81%
    19:00 +8°C° 0 mm 2 mps 763 mmHg 82%
    20:00 +9°C° 0 mm 1 mps 764 mmHg 83%
    21:00 +8°C° 0 mm 1 mps 764 mmHg 84%
    22:00 +8°C° 0 mm 1 mps 764 mmHg 85%
    23:00 +8°C° 0 mm 1 mps 764 mmHg 86%

    26 October, Saturday

    Time Temperature Precipitation Wind Pressure Humidity
    00:00 +8°C° 0 mm 1 mps 764 mmHg 88%
    01:00 +8°C° 0 mm 1 mps 764 mmHg 88%
    02:00 +7°C° 0 mm 1 mps 764 mmHg 89%
    03:00 +7°C° 0 mm 1 mps 764 mmHg 89%
    04:00 +7°C° 0 mm 1 mps 764 mmHg 89%
    05:00 +7°C° 0 mm 1 mps 764 mmHg 89%
    06:00 +7°C° 0 mm 1 mps 764 mmHg 89%
    07:00 +8°C° 0 mm 1 mps 765 mmHg 86%
    08:00 +8°C° 0 mm 2 mps 765 mmHg 83%
    09:00 +9°C° 0 mm 2 mps 765 mmHg 79%
    10:00 +10°C° 0 mm 3 mps 765 mmHg 77%
    11:00 +11°C° 0 mm 4 mps 764 mmHg 75%
    12:00 +13°C° 0 mm 4 mps 764 mmHg 73%
    13:00 +13°C° 0 mm 4 mps 764 mmHg 74%
    14:00 +13°C° 0 mm 4 mps 763 mmHg 75%
    15:00 +13°C° 0 mm 4 mps 763 mmHg 76%
    16:00 +12°C° 0 mm 4 mps 763 mmHg 80%
    17:00 +12°C° 0 mm 4 mps 763 mmHg 84%
    18:00 +11°C° 0 mm 4 mps 763 mmHg 89%
    19:00 +11°C° 0 mm 4 mps 762 mmHg 88%
    20:00 +11°C° 0 mm 4 mps 762 mmHg 88%
    21:00 +11°C° 0 mm 4 mps 762 mmHg 88%
    22:00 +10°C° 0 mm 4 mps 762 mmHg 86%
    23:00 +10°C° 0 mm 4 mps 761 mmHg 83%

    27 October, Sunday

    Time Temperature Precipitation Wind Pressure Humidity
    00:00 +10°C° 0 mm 4 mps 761 mmHg 81%
    01:00 +8°C° 0 mm 4 mps 761 mmHg 79%
    02:00 +8°C° 0 mm 4 mps 761 mmHg 78%
    03:00 +8°C° 0 mm 4 mps 761 mmHg 76%
    04:00 +8°C° 0 mm 4 mps 760 mmHg 76%
    05:00 +8°C° 0 mm 4 mps 760 mmHg 76%
    06:00 +8°C° 0 mm 5 mps 760 mmHg 76%
    07:00 +9°C° 0 mm 5 mps 760 mmHg 70%
    08:00 +10°C° 0 mm 6 mps 760 mmHg 65%
    09:00 +11°C° 0 mm 7 mps 759 mmHg 60%
    10:00 +12°C° 0 mm 7 mps 759 mmHg 56%
    11:00 +15°C° 0 mm 7 mps 759 mmHg 53%
    12:00 +16°C° 0 mm 8 mps 759 mmHg 49%
    13:00 +16°C° 0 mm 7 mps 758 mmHg 51%
    14:00 +16°C° 0 mm 7 mps 758 mmHg 53%
    15:00 +16°C° 0 mm 6 mps 757 mmHg 55%
    16:00 +15°C° 0 mm 6 mps 757 mmHg 57%
    17:00 +14°C° 0 mm 6 mps 757 mmHg 60%
    18:00 +14°C° 0 mm 7 mps 757 mmHg 62%
    19:00 +12°C° 0 mm 7 mps 756 mmHg 62%
    20:00 +12°C° 0 mm 7 mps 756 mmHg 63%
    21:00 +12°C° 0 mm 7 mps 756 mmHg 63%
    22:00 +12°C° 0 mm 7 mps 755 mmHg 64%
    23:00 +11°C° 0 mm 7 mps 755 mmHg 64%

    28 October, Monday

    Time Temperature Precipitation Wind Pressure Humidity
    00:00 +11°C° 0 mm 7 mps 754 mmHg 64%
    01:00 +11°C° 0 mm 6 mps 754 mmHg 64%
    02:00 +10°C° 0 mm 6 mps 753 mmHg 63%
    03:00 +10°C° 0 mm 6 mps 753 mmHg 63%
    04:00 +10°C° 0 mm 6 mps 752 mmHg 62%
    05:00 +10°C° 0 mm 6 mps 752 mmHg 61%
    06:00 +9°C° 0 mm 7 mps 751 mmHg 60%
    07:00 +10°C° 0 mm 7 mps 751 mmHg 58%
    08:00 +11°C° 0 mm 8 mps 751 mmHg 56%
    09:00 +12°C° 0 mm 8 mps 751 mmHg 53%
    10:00 +11°C° 0.1 mm 8 mps 751 mmHg 57%
    11:00 +11°C° 0.1 mm 8 mps 751 mmHg 61%
    12:00 +11°C° 0.1 mm 7 mps 751 mmHg 65%
    13:00 +10°C° 0.9 mm 6 mps 751 mmHg 72%
    14:00 +10°C° 0.9 mm 5 mps 751 mmHg 80%
    15:00 +10°C° 0.9 mm 4 mps 752 mmHg 88%
    16:00 +9°C° 0.1 mm 3 mps 752 mmHg 87%
    17:00 +9°C° 0.1 mm 2 mps 752 mmHg 87%
    18:00 +9°C° 0.1 mm 2 mps 752 mmHg 86%
    19:00 +8°C° 0 mm 2 mps 752 mmHg 87%
    20:00 +8°C° 0 mm 1 mps 752 mmHg 89%
    21:00 +7°C° 0 mm 1 mps 752 mmHg 90%
    22:00 +7°C° 0 mm 1 mps 752 mmHg 90%
    23:00 +7°C° 0 mm 1 mps 752 mmHg 90%
    Show more